SOYUZ-MS 17 (46613 NORAD) Tracking and Keplerian Element Data

This shows tracking and keplerian element data for the satellite.

Feedback or suggestion? Click here.




ElementValue
Catalog46613
NameSOYUZ-MS 17
Epoch Orbit26660
Epoch Day26.29455175
Epoch Year2021
RAAN324.5349
Inclination51.6464
Eccentricity0.0002308
Argument of Perigee292.1434
Mean Anonmoly166.6739
Mean Motion15.48892138
Decay Rate1.781E-05
L11 46613U 20072A 21026.29455175 .00001781 00000-0 40614-4 0 9996
L22 46613 51.6464 324.5349 0002308 292.1434 166.6739 15.48892138266603

Live tracking and technical data element details for SOYUZ-MS 17 (NORAD 46613). SOYUZ-MS 17 can be tracked NOW for your location showing map with azimuth and elevation plus other details from your city location.

Track the satellite on the map from your city or location and see movement details for azimuth, elevation, latitude, longitude, range, height, and movement on the map or in text.







IsCatalogInMostPopularTable: catalog: 46613, numindb: 50
Update: records affected: 1



GetName: 46613 SOYUZ-MS 17

Hit Count: updated at: Thu, 28 Jan 2021 12:46:11 GMT